User: anonymous   Login
Location: Sun City Center
(27.6996°N, 82.3528°W)
Time: 21:39:35
(UTC-05:00)
Language:

Cosmos 2084 Rocket - Orbit

View from above orbital plane
View from above orbital plane
View from above satellite
View from above satellite

Ground track
Ground track

The orbit data is extracted from the following two-line orbital elements,

1 20666U 90055D   14326.75277645  .00001720  00000-0  18674-3 0  3519
2 20666 062.7888 034.9207 0074778 009.3634 350.8832 14.90100962321371
Epoch (UTC): 22 November 2014 18:03:59
Eccentricity: 0.0074778
inclination: 62.7888°
perigee height: 545 km
apogee height: 650 km
right ascension of ascending node: 34.9207°
argument of perigee: 9.3634°
revolutions per day: 14.90100962
mean anomaly at epoch: 350.8832°
orbit number at epoch: 32137

The dashed part of the orbit path shows where the satellite is in the earth's shadow,  

DLR